Location: Emporia
(38.4040°N, 96.1810°W)
Time: 23:54:57
(UTC-05:00)

ISS - Visible Passes

Search period start: 29 May 2016 00:00
Search period end: 08 June 2016 00:00
Orbit: 402 x 404 km, 51.6° (Epoch: 29 May)

Date Brightness Start Highest point End Pass type
(mag) Time Alt. Az. Time Alt. Az. Time Alt. Az.
29 May -0.1 02:46:51 10° NNW 02:48:52 15° NNE 02:50:54 10° ENE visible
29 May -3.4 04:22:28 10° NW 04:25:44 85° NE 04:28:59 10° SE visible
29 May -0.4 22:38:11 10° WNW 22:40:37 19° NNW 22:43:03 10° NNE visible
30 May 0.2 01:54:40 10° N 01:55:49 11° NNE 01:56:58 10° NE visible
30 May -2.1 03:29:48 10° NW 03:32:56 42° NE 03:36:04 10° ESE visible
30 May -1.8 05:06:53 10° W 05:09:09 18° SW 05:11:24 10° S visible
30 May -1.1 21:44:45 10° W 21:47:40 29° NNW 21:50:36 10° NNE visible
31 May -0.6 02:37:17 10° NNW 02:38:25 17° NNW 02:38:25 17° NNW visible
31 May 0.0 22:30:21 10° NW 22:31:51 12° NNW 22:33:21 10° N visible
01 Jun -0.2 01:44:52 10° NNW 01:46:06 15° N 01:46:06 15° N visible
01 Jun -0.3 21:36:32 10° WNW 21:38:48 17° NNW 21:41:04 10° NNE visible
02 Jun -0.1 00:52:35 10° N 00:54:02 12° NNE 00:54:27 12° NNE visible
03 Jun 0.0 01:35:18 10° NNW 01:35:36 12° NNW 01:35:36 12° NNW visible
03 Jun -0.1 21:28:51 10° NW 21:30:02 12° NNW 21:31:15 10° N visible
04 Jun -0.3 00:42:51 10° NNW 00:44:17 17° N 00:44:17 17° N visible
04 Jun -0.4 23:50:30 10° NNW 23:52:12 13° NNE 23:53:04 12° NE visible
05 Jun -0.1 22:58:30 10° N 22:59:05 10° NNE 22:59:40 10° NNE visible
06 Jun -0.5 00:33:18 10° NW 00:34:29 19° NNW 00:34:29 19° NNW visible
06 Jun -1.1 23:40:47 10° NNW 23:43:20 21° NNE 23:43:20 21° NNE visible
07 Jun -0.6 22:48:23 10° NNW 22:50:20 15° NNE 22:52:15 10° ENE visible
